"datetime","# probes","# resolvers","can_ipv6","can_ipv6_prbs","can_tcp","can_tcp_prbs","can_tcp6","can_tcp6_prbs","does_ecs","does_ecs_prbs","does_flagday","does_flagday_prbs","does_rov4","does_rov4_prbs","does_rov6","does_rov6_prbs","does_qnamemin","doesnt_qnamemin","does_qnamemin_prbs","doesnt_qnamemin_prbs","does_nxdomain","doesnt_nxdomain","does_nxdomain_prbs","doesnt_nxdomain_prbs","has_ta_19036","hasnt_ta_19036","has_ta_19036_prbs","hasnt_ta_19036_prbs","has_ta_20326","hasnt_ta_20326","has_ta_20326_prbs","hasnt_ta_20326_prbs","can_rsamd5","cannot_rsamd5","broken_rsamd5","can_rsamd5_prbs","cannot_rsamd5_prbs","broken_rsamd5_prbs","can_dsa","cannot_dsa","broken_dsa","can_dsa_prbs","cannot_dsa_prbs","broken_dsa_prbs","can_rsasha1","cannot_rsasha1","broken_rsasha1","can_rsasha1_prbs","cannot_rsasha1_prbs","broken_rsasha1_prbs","can_dsansec3","cannot_dsansec3","broken_dsansec3","can_dsansec3_prbs","cannot_dsansec3_prbs","broken_dsansec3_prbs","can_rsansec3","cannot_rsansec3","broken_rsansec3","can_rsansec3_prbs","cannot_rsansec3_prbs","broken_rsansec3_prbs","can_rsasha256","cannot_rsasha256","broken_rsasha256","can_rsasha256_prbs","cannot_rsasha256_prbs","broken_rsasha256_prbs","can_rsasha512","cannot_rsasha512","broken_rsasha512","can_rsasha512_prbs","cannot_rsasha512_prbs","broken_rsasha512_prbs","can_eccgost","cannot_eccgost","broken_eccgost","can_eccgost_prbs","cannot_eccgost_prbs","broken_eccgost_prbs","can_ecdsa256","cannot_ecdsa256","broken_ecdsa256","can_ecdsa256_prbs","cannot_ecdsa256_prbs","broken_ecdsa256_prbs","can_ecdsa384","cannot_ecdsa384","broken_ecdsa384","can_ecdsa384_prbs","cannot_ecdsa384_prbs","broken_ecdsa384_prbs","can_ed25519","cannot_ed25519","broken_ed25519","can_ed25519_prbs","cannot_ed25519_prbs","broken_ed25519_prbs","can_ed448","cannot_ed448","broken_ed448","can_ed448_prbs","cannot_ed448_prbs","broken_ed448_prbs","can_gost","cannot_gost","broken_gost","can_gost_prbs","cannot_gost_prbs","broken_gost_prbs","can_sha384","cannot_sha384","broken_sha384","can_sha384_prbs","cannot_sha384_prbs","broken_sha384_prbs","is_internal","is_forwarding","is_external","is_internal_prbs","is_forwarding_prbs","is_external_prbs"
2017-06-20T23:59:55Z,56,81,76,52,81,56,76,52,2,2,0,0,0,0,0,0,0,81,0,56,0,81,0,56,0,0,0,0,0,0,0,0,14,67,0,12,47,6,81,0,0,56,3,5,81,0,0,56,2,0,81,0,0,56,3,5,81,0,0,56,2,0,81,0,0,56,2,0,81,0,0,56,2,0,72,7,1,49,6,6,80,1,0,55,3,0,79,1,0,54,3,0,0,79,1,0,54,6,0,77,3,0,53,7,73,7,0,50,6,5,79,1,0,54,3,0,73,6,2,51,5,3
2017-06-21T23:59:55Z,60,84,79,56,84,60,79,56,2,3,0,0,0,0,0,0,0,84,0,60,0,84,0,60,0,0,0,0,0,0,0,0,14,70,0,13,50,6,82,1,1,58,4,7,84,0,0,60,2,0,84,0,0,60,3,6,84,0,0,60,2,0,83,0,0,59,2,0,84,0,0,60,2,0,75,7,1,53,6,6,83,1,0,59,3,0,82,1,0,58,3,0,1,82,0,1,58,5,0,81,2,0,57,8,75,8,0,53,7,5,81,2,0,57,4,0,76,6,2,55,5,3
2017-06-22T23:59:56Z,62,88,83,58,88,62,83,58,1,1,0,0,0,0,0,0,3,85,2,60,0,88,0,62,0,0,0,0,0,0,0,0,13,72,3,12,51,9,85,1,2,60,4,8,88,0,0,62,2,0,88,0,0,62,3,6,88,0,0,62,2,0,88,0,0,62,2,0,88,0,0,62,2,0,76,7,4,54,6,9,87,1,0,61,3,0,86,1,0,60,3,0,0,83,4,0,58,9,0,83,4,0,58,9,75,7,5,52,6,9,85,1,0,59,3,0,80,6,2,57,5,3
2017-06-23T23:59:55Z,62,89,84,58,89,62,84,58,2,2,0,0,0,0,0,0,3,86,2,60,0,89,0,62,0,0,0,0,0,0,0,0,13,72,4,11,51,10,87,0,2,60,3,7,89,0,0,62,2,0,89,0,0,62,3,6,89,0,0,62,2,0,89,0,0,62,2,0,89,0,0,62,2,0,77,7,4,53,6,9,87,2,0,60,4,0,86,2,0,59,4,0,0,83,5,0,58,10,0,85,3,0,59,8,77,7,4,53,6,9,84,2,0,58,4,0,81,6,2,57,5,3
2017-06-24T23:59:56Z,59,86,81,55,86,59,81,55,1,1,0,0,0,0,0,0,3,83,2,57,0,86,0,59,0,0,0,0,0,0,0,0,13,70,3,12,49,8,84,2,0,58,5,5,86,0,0,59,3,0,86,0,0,59,4,5,86,0,0,59,3,0,86,0,0,59,3,0,86,0,0,59,3,0,74,7,4,50,7,8,85,1,0,58,4,0,84,1,0,57,4,0,0,79,6,0,54,9,1,80,4,1,55,8,74,7,4,51,7,8,82,1,0,56,4,0,78,6,2,54,5,3
2017-06-25T23:59:56Z,61,89,84,58,89,61,84,58,1,1,0,0,0,0,0,0,3,86,2,59,0,89,0,61,0,0,0,0,0,0,0,0,13,73,3,11,50,8,87,0,2,60,4,7,89,0,0,61,3,0,89,0,0,61,4,5,89,0,0,61,3,0,89,0,0,61,3,0,89,0,0,61,3,0,78,7,3,54,7,7,88,1,0,60,4,0,87,1,0,59,4,0,1,83,4,1,57,8,0,85,3,0,58,7,77,7,4,53,7,8,86,1,0,58,4,0,81,6,2,56,5,3
2017-06-26T23:59:56Z,61,88,83,57,88,61,82,56,2,2,0,0,0,0,0,0,3,85,2,59,0,88,0,61,0,0,0,0,0,0,0,0,13,72,3,12,50,8,86,2,0,59,5,5,87,1,0,60,3,0,88,0,0,61,3,5,88,0,0,61,2,0,88,0,0,61,2,0,88,0,0,61,2,0,74,7,6,51,6,10,86,2,0,59,4,0,85,2,0,58,4,0,0,83,4,0,57,8,0,82,5,0,57,9,75,8,4,51,7,8,84,2,0,57,4,0,79,7,2,55,6,3
2017-06-27T23:59:57Z,62,89,84,58,89,62,83,57,1,1,0,0,0,0,0,0,3,86,2,60,0,89,0,62,0,0,0,0,0,0,0,0,14,71,4,12,49,9,87,1,1,61,5,6,89,0,0,62,3,0,89,0,0,62,4,5,89,0,0,62,3,0,89,0,0,62,3,0,89,0,0,62,3,0,75,7,6,52,7,10,88,1,0,61,4,0,87,1,0,60,4,0,0,84,4,0,58,8,1,84,3,1,58,7,76,7,5,52,7,9,86,1,0,59,4,0,81,6,2,57,5,3
2017-06-28T23:59:56Z,60,87,82,56,87,60,81,55,1,2,0,0,0,0,0,0,3,84,2,58,0,87,0,60,0,0,0,0,0,0,0,0,13,71,3,11,49,8,87,0,0,60,5,5,87,0,0,60,4,0,87,0,0,60,5,5,87,0,0,60,4,0,87,0,0,60,4,0,87,0,0,60,4,0,75,7,4,51,8,8,86,1,0,59,5,0,85,1,0,58,5,0,0,83,3,0,57,7,0,83,3,0,57,7,75,7,4,51,8,8,84,1,0,57,5,0,79,6,2,55,6,3
2017-06-29T23:59:57Z,63,92,87,59,92,63,86,58,1,2,0,0,0,0,0,0,4,88,2,61,0,92,0,63,0,0,0,0,0,0,0,0,13,75,4,11,52,9,92,0,0,63,5,5,92,0,0,63,3,0,92,0,0,63,5,5,92,0,0,63,3,0,92,0,0,63,3,0,92,0,0,63,3,0,78,7,6,54,8,9,91,1,0,62,4,0,90,1,0,61,4,0,0,85,6,0,59,8,0,85,6,0,59,9,80,7,4,55,7,7,89,1,0,60,4,0,84,6,2,58,6,3
2017-06-30T23:59:57Z,61,89,84,57,89,61,83,56,3,3,0,0,0,0,0,0,3,86,2,59,0,89,0,61,0,0,0,0,0,0,0,0,12,73,4,10,50,9,89,0,0,61,4,5,89,0,0,61,3,0,89,0,0,61,4,5,89,0,0,61,3,0,89,0,0,61,3,0,89,0,0,61,3,0,77,7,4,52,7,8,89,0,0,61,3,0,88,0,0,60,3,0,0,84,4,0,58,8,0,83,5,0,57,9,77,7,4,52,7,8,87,0,0,59,3,0,82,5,2,57,4,3
2017-07-01T23:59:56Z,60,88,83,56,88,60,82,55,2,2,0,0,0,0,0,0,3,85,2,58,0,88,0,60,0,0,0,0,0,0,0,0,12,71,5,10,49,9,88,0,0,60,4,5,88,0,0,60,3,0,88,0,0,60,4,5,88,0,0,60,3,0,88,0,0,60,3,0,88,0,0,60,3,0,75,7,5,51,7,9,88,0,0,60,3,0,87,0,0,59,3,0,0,83,4,0,56,8,0,81,6,0,55,9,76,7,4,51,7,8,86,0,0,58,3,0,81,5,2,56,4,3
2017-07-02T23:59:57Z,60,88,82,56,88,60,81,55,2,2,0,0,0,0,0,0,3,85,2,58,0,87,0,60,0,0,0,0,0,0,0,0,13,72,3,11,49,8,87,1,0,59,5,5,88,0,0,60,3,0,88,0,0,60,4,5,88,0,0,60,3,0,88,0,0,60,3,0,88,0,0,60,3,0,75,7,5,51,7,8,88,0,0,60,3,0,87,0,0,59,3,0,0,82,5,0,56,8,0,84,3,0,57,7,77,7,3,52,7,7,85,0,0,58,3,0,81,5,2,56,4,3
2017-07-03T23:59:56Z,61,90,85,57,90,61,84,56,1,1,0,0,0,0,0,0,4,86,2,59,0,90,0,61,0,0,0,0,0,0,0,0,11,74,5,9,51,9,88,1,1,59,5,6,89,1,0,60,4,0,90,0,0,61,4,5,89,1,0,60,4,0,90,0,0,61,3,0,90,0,0,61,3,0,75,7,7,50,8,9,90,0,0,61,3,0,89,0,0,60,3,0,0,85,4,0,58,7,1,84,4,1,58,7,77,7,5,51,8,8,87,1,0,58,4,0,83,5,2,57,4,3
2017-07-04T23:59:56Z,60,88,83,56,88,60,82,55,1,1,0,0,0,0,0,0,3,85,2,58,0,88,0,60,0,0,0,0,0,0,0,0,11,73,4,9,51,9,88,0,0,60,4,5,88,0,0,60,3,0,88,0,0,60,4,5,88,0,0,60,3,0,88,0,0,60,3,0,88,0,0,60,3,0,78,6,3,52,7,7,88,0,0,60,3,0,87,0,0,59,3,0,0,83,4,0,57,8,0,83,4,0,57,8,78,6,3,52,7,7,86,0,0,58,3,0,81,5,2,56,4,3
2017-07-05T23:59:56Z,60,88,83,56,88,60,82,55,1,1,0,0,0,0,0,0,3,85,2,58,0,88,0,60,0,0,0,0,0,0,0,0,12,72,4,10,50,8,86,0,2,58,4,6,88,0,0,60,3,0,88,0,0,60,4,4,88,0,0,60,3,0,88,0,0,60,3,0,88,0,0,60,3,0,75,6,6,50,7,8,88,0,0,60,3,0,87,0,0,59,3,0,2,82,3,2,56,6,2,80,5,2,55,7,76,6,5,51,7,7,86,0,0,58,3,0,81,5,2,56,4,3
2017-07-06T23:59:55Z,57,85,80,53,85,57,79,52,1,1,0,0,0,0,0,0,3,82,2,55,0,85,0,57,0,0,0,0,0,0,0,0,11,71,3,9,48,7,83,1,1,56,5,5,85,0,0,57,3,0,85,0,0,57,4,4,85,0,0,57,3,0,85,0,0,57,3,0,85,0,0,57,3,0,74,7,3,49,7,6,85,0,0,57,3,0,84,0,0,56,3,0,0,81,3,0,54,6,1,79,4,1,53,7,74,7,3,49,7,6,83,0,0,55,3,0,78,5,2,53,4,3
2017-07-07T23:59:56Z,60,88,83,56,88,60,82,55,2,2,0,0,0,0,0,0,3,85,2,58,0,88,0,60,0,0,0,0,0,0,0,0,11,73,4,9,50,8,87,0,1,59,4,5,88,0,0,60,3,0,88,0,0,60,4,4,88,0,0,60,3,0,88,0,0,60,3,0,88,0,0,60,3,0,75,7,5,50,7,8,87,1,0,59,4,0,86,1,0,58,4,0,2,82,3,2,56,6,1,82,4,1,56,7,75,8,4,50,8,7,85,1,0,57,4,0,81,5,2,56,4,3
2017-07-08T23:59:55Z,60,87,82,56,87,60,81,55,3,3,0,0,0,0,0,0,1,86,1,59,0,87,0,60,0,0,0,0,0,0,0,0,11,74,2,9,52,8,82,2,3,56,6,8,87,0,0,60,4,0,87,0,0,60,5,5,87,0,0,60,4,0,87,0,0,60,4,0,87,0,0,60,4,0,77,7,2,52,8,7,87,0,0,60,4,0,86,0,0,59,4,0,2,83,1,2,58,6,1,84,1,1,58,6,78,6,2,53,8,7,86,0,0,59,4,0,80,5,2,56,4,3
2017-07-09T23:59:56Z,59,86,81,55,86,59,80,54,2,2,0,0,0,0,0,0,0,86,0,59,0,86,0,59,0,0,0,0,0,0,0,0,13,73,0,11,50,6,85,0,1,58,4,6,86,0,0,59,3,0,86,0,0,59,4,5,86,0,0,59,3,0,86,0,0,59,3,0,86,0,0,59,3,0,78,7,0,53,7,5,86,0,0,59,3,0,85,0,0,58,3,0,0,83,2,0,56,7,1,83,1,1,56,6,77,7,1,52,7,6,85,0,0,58,3,0,79,5,2,55,4,3
2017-07-10T23:59:55Z,64,94,89,60,94,64,88,59,1,1,0,0,0,0,0,0,3,91,2,62,0,94,0,64,0,0,0,0,0,0,0,0,11,78,5,9,54,9,90,2,2,61,5,7,94,0,0,64,3,0,94,0,0,64,4,5,94,0,0,64,3,0,94,0,0,64,3,0,94,0,0,64,3,0,82,7,4,55,7,8,94,0,0,64,3,0,93,0,0,63,3,0,1,89,3,1,60,7,0,88,5,0,60,8,81,7,5,55,7,8,92,0,0,62,3,0,87,5,2,60,4,3
2017-07-11T23:59:56Z,63,91,86,59,91,63,85,58,2,2,0,0,0,0,0,0,1,90,1,62,0,91,0,63,0,0,0,0,0,0,0,0,13,76,2,11,53,8,91,0,0,63,4,5,91,0,0,63,3,0,91,0,0,63,4,6,91,0,0,63,3,0,91,0,0,63,3,0,91,0,0,63,3,0,80,8,2,54,8,7,91,0,0,63,3,0,90,0,0,62,3,0,1,87,2,1,59,7,0,86,4,0,59,8,81,7,2,55,7,7,89,0,0,61,3,0,84,5,2,59,4,3
2017-07-12T23:59:56Z,63,91,86,59,91,63,85,58,1,2,0,0,0,0,0,0,1,90,1,62,0,91,0,63,0,0,0,0,0,0,0,0,12,78,1,10,54,7,88,1,2,60,5,7,91,0,0,63,3,0,91,0,0,63,4,6,91,0,0,63,3,0,91,0,0,63,3,0,91,0,0,63,3,0,78,7,5,53,7,9,91,0,0,63,3,0,90,0,0,62,3,0,1,88,1,1,60,7,0,89,1,0,61,6,81,7,2,55,7,7,89,0,0,61,3,0,84,5,2,59,4,3
2017-07-13T23:59:55Z,63,91,86,60,91,63,85,58,1,2,0,0,0,0,0,0,1,90,1,62,0,91,0,63,0,0,0,0,0,0,0,0,12,78,1,10,54,8,90,1,0,63,4,5,91,0,0,63,2,0,91,0,0,63,3,6,90,0,1,63,2,1,91,0,0,63,2,0,91,0,0,63,2,0,81,8,1,55,7,6,90,0,1,63,2,1,88,1,1,61,3,1,0,88,2,0,61,7,0,88,2,1,61,7,77,9,4,53,8,8,88,1,0,60,3,0,84,5,2,59,4,3
2017-07-14T23:59:56Z,65,94,89,62,94,65,88,60,1,1,0,0,0,0,0,0,1,93,1,64,0,94,0,65,0,0,0,0,0,0,0,0,12,77,5,10,53,10,92,2,0,64,6,5,94,0,0,65,3,0,94,0,0,65,4,5,94,0,0,65,3,0,94,0,0,65,3,0,94,0,0,65,3,0,54,36,3,37,27,8,94,0,0,65,3,0,93,0,0,64,3,0,0,89,4,0,61,9,1,90,2,1,61,7,50,37,6,35,28,10,92,0,0,63,3,0,87,5,2,61,4,3
2017-07-15T23:59:56Z,61,89,84,58,89,61,83,56,2,2,0,0,0,0,0,0,1,88,1,60,0,89,0,61,0,0,0,0,0,0,0,0,13,75,1,11,51,7,88,0,1,60,3,6,89,0,0,61,2,0,89,0,0,61,3,5,89,0,0,61,2,0,89,0,0,61,2,0,89,0,0,61,2,0,46,39,3,32,28,7,89,0,0,61,2,0,88,0,0,60,2,0,0,86,2,0,58,7,0,86,2,0,58,7,46,41,1,31,29,6,87,0,0,59,2,0,82,5,2,57,4,3
2017-07-16T23:59:57Z,62,91,86,59,91,62,85,57,2,2,0,0,0,0,0,0,1,90,1,61,0,91,0,62,0,0,0,0,0,0,0,0,12,78,1,10,53,7,89,2,0,61,5,5,91,0,0,62,3,0,91,0,0,62,4,5,91,0,0,62,3,0,91,0,0,62,3,0,91,0,0,62,3,0,48,41,2,33,30,7,91,0,0,62,3,0,91,0,0,62,3,0,0,87,4,0,60,8,0,90,1,0,61,6,46,43,2,31,32,7,90,0,0,61,3,0,84,5,2,58,4,3
2017-07-17T23:59:56Z,63,92,87,60,92,63,86,58,1,2,0,0,0,0,0,0,3,89,2,61,0,92,0,63,0,0,0,0,0,0,0,0,12,75,5,11,52,10,92,0,0,63,5,5,92,0,0,63,3,0,92,0,0,63,5,6,92,0,0,63,3,0,92,0,0,63,3,0,92,0,0,63,3,0,33,56,3,23,41,7,92,0,0,63,3,0,92,0,0,63,3,0,0,88,4,0,60,8,0,89,3,0,61,7,31,57,4,21,40,8,91,0,0,62,3,0,85,5,2,59,4,3
2017-07-18T23:59:54Z,58,86,81,55,86,58,80,53,3,3,0,0,0,0,0,0,3,83,2,56,0,86,0,58,0,0,0,0,0,0,0,0,10,71,5,9,48,9,86,0,0,58,4,5,86,0,0,58,3,0,86,0,0,58,4,5,86,0,0,58,3,0,86,0,0,58,3,0,86,0,0,58,3,0,35,46,5,25,32,8,86,0,0,58,3,0,86,0,0,58,3,0,2,81,3,1,55,7,0,83,3,0,56,7,32,51,3,21,36,7,85,0,0,57,3,0,81,4,1,55,3,2
2017-07-19T23:59:55Z,60,89,84,57,89,60,83,55,1,1,0,0,0,0,0,0,3,86,2,58,0,89,0,60,0,0,0,0,0,0,0,0,10,76,3,9,51,8,88,0,1,59,4,6,89,0,0,60,3,0,89,0,0,60,4,5,89,0,0,60,3,0,89,0,0,60,3,0,89,0,0,60,3,0,29,55,4,20,38,8,89,0,0,60,3,0,88,0,0,59,3,0,0,84,4,0,57,8,1,84,3,1,57,7,27,58,3,19,40,7,87,0,0,58,3,0,84,4,1,57,3,2
2017-07-20T23:59:55Z,60,87,82,57,87,60,81,55,2,2,0,0,0,0,0,0,3,84,2,58,0,87,0,60,0,0,0,0,0,0,0,0,9,75,3,9,51,8,87,0,0,60,4,5,87,0,0,60,3,0,87,0,0,60,4,5,87,0,0,60,3,0,87,0,0,60,3,0,87,0,0,60,3,0,30,52,4,21,36,8,87,0,0,60,3,0,86,0,0,59,3,0,0,83,3,0,57,7,0,82,4,0,56,8,30,53,3,22,36,7,85,0,0,58,3,0,84,2,1,58,2,2
2017-07-21T23:59:55Z,61,88,83,58,88,61,82,56,2,2,0,0,0,0,0,0,3,85,2,59,0,88,0,61,0,0,0,0,0,0,0,0,9,75,4,9,51,9,83,4,1,57,7,6,88,0,0,61,3,0,88,0,0,61,4,5,88,0,0,61,3,0,88,0,0,61,3,0,88,0,0,61,3,0,29,54,4,21,37,8,88,0,0,61,3,0,87,0,0,60,3,0,1,83,3,1,57,7,0,82,5,0,57,9,27,56,4,20,38,8,86,0,0,59,3,0,84,3,1,58,3,2
2017-07-22T23:59:58Z,61,88,83,58,88,61,82,56,1,1,0,0,0,0,0,0,3,85,2,59,0,88,0,61,0,0,0,0,0,0,0,0,8,75,5,8,52,10,86,2,0,60,5,6,88,0,0,61,3,1,88,0,0,61,4,6,88,0,0,61,3,1,88,0,0,61,3,1,88,0,0,61,3,1,27,55,5,19,40,10,88,0,0,61,3,1,87,0,0,60,3,1,1,80,6,1,56,10,0,83,4,0,57,9,26,55,6,18,39,10,86,0,0,59,3,1,85,2,1,59,2,2
2017-07-23T23:59:57Z,61,89,84,58,89,61,83,56,1,1,0,0,0,0,0,0,4,85,2,59,0,89,0,61,0,0,0,0,0,0,0,0,8,77,4,8,53,8,87,1,1,59,5,6,89,0,0,61,3,0,89,0,0,61,4,6,89,0,0,61,3,0,89,0,0,61,3,0,89,0,0,61,3,0,25,59,4,17,42,7,89,0,0,61,3,0,88,0,0,60,3,0,0,84,4,1,58,7,0,84,4,0,58,7,25,59,4,17,42,7,87,0,0,59,3,0,86,2,1,59,2,2
2017-07-24T23:59:56Z,57,86,81,54,86,57,80,52,1,1,0,0,0,0,0,0,3,83,2,55,0,86,0,57,0,0,0,0,0,0,0,0,10,71,5,9,47,9,83,3,0,55,6,5,82,4,0,55,6,0,86,0,0,57,4,5,86,0,0,57,4,0,84,2,0,56,5,0,85,1,0,57,5,0,30,51,5,22,34,6,84,2,0,56,5,0,83,3,0,55,5,0,0,79,7,2,53,9,1,80,5,1,53,8,29,49,8,20,33,10,81,4,0,54,7,0,81,4,1,54,3,2
2017-07-25T23:59:56Z,54,81,76,51,81,54,75,49,1,1,0,0,0,0,0,0,3,78,2,52,0,81,0,54,0,0,0,0,0,0,0,0,10,67,4,9,45,8,80,0,1,54,4,5,81,0,0,54,3,0,81,0,0,54,5,5,81,0,0,54,5,0,80,1,0,53,5,0,80,1,0,54,6,0,31,46,4,22,31,6,80,1,0,54,4,0,80,1,0,53,6,0,0,75,6,0,51,8,0,77,4,4,52,6,27,50,4,19,35,7,78,2,0,52,6,0,76,4,1,51,3,2
2017-07-26T23:59:57Z,54,80,75,51,80,54,74,49,1,1,0,0,0,0,0,0,3,77,2,52,0,80,0,54,0,0,0,0,0,0,0,0,11,64,5,11,44,8,77,1,2,52,5,6,78,2,0,52,7,0,80,0,0,54,5,4,80,0,0,54,4,0,79,1,0,53,5,0,79,1,0,53,5,0,32,44,4,22,31,8,80,0,0,54,4,0,80,0,0,54,4,0,0,75,5,2,51,6,0,76,4,1,52,7,30,43,7,22,30,9,79,0,0,53,5,0,75,4,1,51,3,2
2017-07-27T23:59:57Z,62,90,85,59,90,62,84,57,1,1,0,0,0,0,0,0,3,87,2,60,0,90,0,62,0,0,0,0,0,0,0,0,10,77,3,9,53,8,89,0,1,61,4,6,90,0,0,62,3,0,90,0,0,62,4,5,90,0,0,62,3,0,90,0,0,62,3,0,90,0,0,62,3,0,30,52,8,21,39,11,90,0,0,62,3,0,90,0,0,62,3,0,0,83,7,0,57,10,1,84,5,1,57,9,35,51,4,25,36,8,89,0,0,61,3,0,85,4,1,59,3,2
2017-07-28T23:59:56Z,64,92,87,61,92,64,86,59,1,1,0,0,0,0,0,0,3,89,2,62,0,92,0,64,0,0,0,0,0,0,0,0,13,76,3,11,53,8,90,1,1,63,5,6,92,0,0,64,3,0,92,0,0,64,4,5,92,0,0,64,3,0,92,0,0,64,3,0,92,0,0,64,3,0,36,51,5,25,38,9,92,0,0,64,3,0,92,0,0,64,3,0,0,87,5,0,60,9,0,88,4,0,61,8,38,51,3,26,37,7,91,0,0,63,3,0,87,4,1,61,3,2
2017-07-29T23:59:56Z,64,91,86,61,91,64,84,58,3,3,0,0,0,0,0,0,3,88,2,62,0,91,0,64,0,0,0,0,0,0,0,0,11,76,4,10,53,9,89,2,0,62,6,5,91,0,0,64,3,0,91,0,0,64,4,5,90,0,1,63,3,1,90,0,1,63,3,1,90,0,1,63,3,1,33,52,5,22,40,9,90,0,1,63,3,1,90,0,0,63,3,0,0,86,4,0,60,8,2,85,3,2,60,7,33,51,6,23,37,9,89,0,0,62,3,0,85,5,1,60,4,2
2017-07-30T23:59:56Z,64,91,86,61,91,64,85,59,3,3,0,0,0,0,0,0,3,88,2,62,0,91,0,64,0,0,0,0,0,0,0,0,9,78,4,9,55,9,88,3,0,62,6,5,91,0,0,64,3,0,91,0,0,64,4,5,91,0,0,64,3,0,91,0,0,64,3,0,91,0,0,64,3,0,36,49,5,25,36,9,91,0,0,64,3,0,90,0,0,63,3,0,1,81,8,1,58,10,1,84,5,1,59,9,31,55,4,22,39,8,89,0,0,62,3,0,88,2,1,62,2,2
2017-07-31T23:59:56Z,60,86,81,57,86,60,80,55,1,1,0,0,0,0,0,0,3,83,2,58,0,86,0,60,0,0,0,0,0,0,0,0,7,72,7,7,51,10,86,0,0,60,4,5,86,0,0,60,3,0,86,0,0,60,4,5,86,0,0,60,3,0,86,0,0,60,3,0,86,0,0,60,3,0,31,51,3,22,37,7,86,0,0,60,3,0,85,0,0,59,3,0,0,82,3,0,57,7,0,82,3,0,57,7,30,52,3,21,37,7,84,0,0,58,3,0,83,2,1,58,2,2
2017-08-01T23:59:56Z,66,93,88,63,93,66,87,61,2,2,0,0,0,0,0,0,3,90,2,64,0,93,0,66,0,0,0,0,0,0,0,0,10,79,4,10,56,9,90,3,0,64,5,5,93,0,0,66,2,0,93,0,0,66,3,5,93,0,0,66,2,0,93,0,0,66,2,0,93,0,0,66,2,0,37,50,5,26,37,9,91,2,0,64,4,0,91,1,0,64,3,0,2,85,5,1,60,9,0,89,3,0,63,7,36,53,3,26,38,7,89,2,0,62,4,0,89,3,1,63,3,2
2017-08-02T23:59:55Z,65,91,86,62,91,65,85,60,2,2,0,0,0,0,0,0,3,88,2,63,0,91,0,65,0,0,0,0,0,0,0,0,10,77,4,10,54,9,89,0,2,63,4,7,91,0,0,65,3,0,91,0,0,65,5,5,91,0,0,65,3,0,91,0,0,65,3,0,91,0,0,65,3,0,35,50,5,25,38,9,90,1,0,64,4,0,89,1,0,63,4,0,2,83,5,2,59,9,0,86,4,0,61,8,34,53,3,24,39,7,88,1,0,62,4,0,88,2,1,63,2,2
2017-08-03T23:59:57Z,65,92,87,62,92,65,86,60,1,1,0,0,0,0,0,0,3,89,2,63,0,92,0,65,0,0,0,0,0,0,0,0,9,79,4,9,56,9,90,1,1,63,5,6,92,0,0,65,3,0,92,0,0,65,4,5,92,0,0,65,3,0,92,0,0,65,3,0,92,0,0,65,3,0,35,50,6,25,37,10,91,1,0,64,4,0,90,1,0,63,4,0,0,86,5,0,61,9,2,84,5,1,61,9,34,54,3,24,39,7,88,2,0,61,5,0,88,3,1,62,3,2
2017-08-04T23:59:57Z,63,91,86,60,91,63,86,59,2,2,0,0,0,0,0,0,3,88,2,61,0,91,0,63,0,0,0,0,0,0,0,0,9,79,3,8,55,8,89,2,0,62,5,5,91,0,0,63,3,0,91,0,0,63,4,5,91,0,0,63,3,0,91,0,0,63,3,0,91,0,0,63,3,0,33,47,10,24,34,12,90,1,0,62,4,0,89,1,0,61,4,0,0,85,5,0,59,9,1,84,5,1,58,8,31,54,5,22,38,8,88,1,0,60,4,0,88,2,1,61,2,2
2017-08-05T23:59:56Z,66,95,90,63,95,66,89,62,1,1,0,0,0,0,0,0,3,92,2,64,0,95,0,66,0,0,0,0,0,0,0,0,12,80,3,10,56,8,92,2,1,64,5,6,95,0,0,66,3,0,95,0,0,66,4,5,95,0,0,66,3,0,95,0,0,66,3,0,95,0,0,66,3,0,39,50,5,27,36,9,94,1,0,65,4,0,93,1,0,64,4,0,0,88,6,0,61,9,2,87,5,2,60,8,36,54,4,25,38,8,92,1,0,63,4,0,90,4,1,63,3,2
2017-08-06T23:59:59Z,64,92,87,61,92,64,87,60,1,1,0,0,0,0,0,0,3,89,2,62,0,92,0,64,0,0,0,0,0,0,0,0,10,79,3,9,55,8,92,0,0,64,4,5,92,0,0,64,3,0,92,0,0,64,4,5,92,0,0,64,3,0,92,0,0,64,3,0,92,0,0,64,3,0,37,51,3,26,37,7,91,1,0,63,4,0,90,1,0,62,4,0,0,87,4,0,61,8,3,85,3,2,59,7,36,52,3,25,37,7,89,1,0,61,4,0,87,4,1,61,3,2
2017-08-07T23:59:55Z,66,95,90,63,95,66,90,62,2,2,0,0,0,0,0,0,3,92,2,64,0,95,0,66,0,0,0,0,0,0,0,0,10,80,5,9,56,10,93,1,1,64,5,6,95,0,0,66,3,0,95,0,0,66,5,5,95,0,0,66,3,0,95,0,0,66,3,0,95,0,0,66,3,0,35,52,7,24,38,11,94,1,0,65,4,0,93,1,0,64,4,0,0,85,9,0,59,12,1,88,5,1,61,9,34,54,6,24,38,9,92,1,0,63,4,0,90,4,1,63,3,2
2017-08-08T23:59:58Z,65,94,89,62,94,65,89,61,1,1,0,0,0,0,0,0,3,91,2,63,0,94,0,65,0,0,0,0,0,0,0,0,10,79,5,9,56,9,94,0,0,65,4,5,94,0,0,65,3,0,94,0,0,65,4,5,94,0,0,65,3,0,94,0,0,65,3,0,94,0,0,65,3,0,38,48,7,28,34,10,93,1,0,64,4,0,92,1,0,63,4,0,0,88,5,0,61,9,0,90,3,0,62,7,36,54,3,26,37,7,91,1,0,62,4,0,89,4,1,62,3,2
2017-08-09T23:59:59Z,64,93,88,61,93,64,88,60,1,1,0,0,0,0,0,0,3,90,2,62,0,93,0,64,0,0,0,0,0,0,0,0,12,78,3,10,55,8,93,0,0,64,4,5,93,0,0,64,3,0,93,0,0,64,4,5,93,0,0,64,3,0,93,0,0,64,3,0,93,0,0,64,3,0,34,54,5,24,39,9,92,1,0,63,4,0,92,1,0,63,4,0,0,85,8,0,59,11,1,88,4,1,60,8,36,54,3,26,37,7,91,1,0,62,4,0,88,4,1,61,3,2
2017-08-10T23:59:59Z,64,94,89,61,94,64,89,60,3,2,0,0,0,0,0,0,3,91,2,62,0,94,0,64,0,0,0,0,0,0,0,0,11,80,3,9,55,8,92,2,0,63,5,5,94,0,0,64,3,0,94,0,0,64,4,5,94,0,0,64,3,0,94,0,0,64,3,0,94,0,0,64,3,0,35,56,3,25,39,7,93,1,0,63,4,0,93,1,0,63,4,0,0,85,9,0,59,11,0,90,4,0,62,8,35,56,3,25,38,7,92,1,0,62,4,0,89,4,1,61,3,2
2017-08-11T23:59:54Z,64,93,88,61,93,64,88,60,1,1,0,0,0,0,0,0,3,90,2,62,0,93,0,64,0,0,0,0,0,0,0,0,11,78,4,9,54,9,92,1,0,63,5,5,93,0,0,64,3,0,93,0,0,64,4,5,93,0,0,64,3,0,93,0,0,64,3,0,93,0,0,64,3,0,36,53,3,25,37,7,92,1,0,63,4,0,91,1,0,62,4,0,1,88,3,1,61,7,1,88,3,1,60,7,36,53,3,26,37,7,90,1,0,61,4,0,88,4,1,61,3,2
2017-08-12T23:59:54Z,65,94,89,62,94,65,89,61,3,3,0,0,0,0,0,0,3,91,2,63,0,94,0,65,0,0,0,0,0,0,0,0,13,76,5,11,55,9,92,2,0,64,6,5,94,0,0,65,3,0,94,0,0,65,4,5,94,0,0,65,3,0,94,0,0,65,3,0,94,0,0,65,3,0,39,50,4,28,36,8,92,2,0,63,5,0,91,2,0,62,5,0,0,87,6,0,60,10,0,89,4,0,61,8,39,50,4,28,35,8,90,2,0,61,5,0,89,4,1,62,3,2
2017-08-13T23:59:59Z,66,96,91,63,96,66,91,62,2,2,0,0,0,0,0,0,3,93,2,64,0,96,0,66,0,0,0,0,0,0,0,0,13,80,3,10,56,8,94,2,0,65,5,5,96,0,0,66,3,0,96,0,0,66,4,5,96,0,0,66,3,0,96,0,0,66,3,0,96,0,0,66,3,0,40,50,5,29,35,9,95,1,0,65,4,0,94,1,0,64,4,0,0,89,6,0,61,9,0,92,3,0,63,7,39,53,3,27,37,7,93,1,0,63,4,0,91,4,1,63,3,2
2017-08-14T23:59:59Z,64,94,89,61,94,64,89,60,1,1,0,0,0,0,0,0,3,91,2,62,0,94,0,64,0,0,0,0,0,0,0,0,11,80,3,9,55,8,92,0,2,63,3,6,94,0,0,64,2,0,94,0,0,64,3,5,94,0,0,64,2,0,94,0,0,64,2,0,94,0,0,64,2,0,43,44,7,30,31,10,93,1,0,63,3,0,93,1,0,63,3,0,0,88,6,0,60,9,1,90,3,1,62,7,37,51,6,26,35,9,92,1,0,62,3,0,89,4,1,61,3,2
2017-08-15T23:59:58Z,66,95,90,63,95,66,89,62,2,2,0,0,0,0,0,0,3,92,2,64,0,95,0,66,0,0,0,0,0,0,0,0,11,80,4,9,57,9,95,0,0,66,5,5,95,0,0,66,3,0,95,0,0,66,5,5,95,0,0,66,3,0,95,0,0,66,3,0,95,0,0,66,3,0,38,51,6,27,37,10,94,1,0,65,4,0,94,1,0,65,4,0,1,90,4,1,63,8,1,91,3,1,63,7,41,51,3,29,37,7,92,2,0,63,5,0,90,4,1,63,3,2
2017-08-16T23:59:58Z,66,95,90,63,95,66,89,61,2,2,0,0,0,0,0,0,3,92,2,64,0,95,0,66,0,0,0,0,0,0,0,0,13,79,3,11,56,8,92,2,1,64,5,6,95,0,0,66,3,0,95,0,0,66,4,5,95,0,0,66,3,0,95,0,0,66,3,0,95,0,0,66,3,0,40,48,6,27,36,9,94,1,0,65,4,0,93,1,0,64,4,0,1,89,4,1,61,8,0,91,3,0,63,7,39,52,3,27,38,7,92,1,0,63,4,0,90,4,1,63,3,2
2017-08-17T23:59:56Z,63,90,85,60,90,63,84,58,1,2,0,0,0,0,0,0,3,87,2,61,0,90,0,63,0,0,0,0,0,0,0,0,12,75,3,10,54,8,89,1,0,62,5,5,90,0,0,63,3,0,90,0,0,63,4,7,90,0,0,63,3,0,90,0,0,63,3,0,90,0,0,63,3,0,40,44,5,27,34,9,89,1,0,62,4,0,88,1,0,61,4,0,0,85,4,0,60,8,1,84,4,2,59,8,38,48,3,25,36,7,87,1,0,60,4,0,85,4,1,60,3,2
2017-08-18T23:59:59Z,62,88,83,59,88,62,82,57,1,1,0,0,0,0,0,0,0,88,0,62,0,88,0,62,0,0,0,0,0,0,0,0,10,78,0,9,56,6,88,0,0,62,4,5,88,0,0,62,3,0,88,0,0,62,4,6,88,0,0,62,3,0,88,0,0,62,3,0,88,0,0,62,3,0,38,47,2,25,36,8,87,1,0,61,4,0,86,1,0,60,4,0,0,85,2,0,60,7,0,86,1,0,61,6,41,46,0,28,34,5,86,1,0,60,4,0,83,4,1,59,3,2
2017-08-19T23:59:57Z,62,90,85,59,90,62,84,57,2,2,0,0,0,0,0,0,3,87,2,60,0,90,0,62,0,0,0,0,0,0,0,0,13,74,3,10,52,8,88,2,0,61,5,5,90,0,0,62,3,0,90,0,0,62,4,6,90,0,0,62,3,0,90,0,0,62,3,0,90,0,0,62,3,0,42,43,5,28,33,8,89,1,0,61,4,0,89,1,0,61,4,0,0,86,4,0,59,8,0,86,4,0,60,8,41,46,3,27,34,7,88,1,0,60,4,0,85,4,1,59,3,2
2017-08-20T23:59:56Z,61,90,85,58,90,61,84,56,1,1,0,0,0,0,0,0,3,87,2,59,0,90,0,61,0,0,0,0,0,0,0,0,13,74,3,10,51,8,90,0,0,61,4,5,90,0,0,61,3,0,90,0,0,61,4,5,90,0,0,61,3,0,90,0,0,61,3,0,90,0,0,61,3,0,38,49,3,25,36,7,89,1,0,60,4,0,89,1,0,60,4,0,1,84,5,1,58,8,0,87,3,0,59,7,37,50,3,24,36,7,88,1,0,59,4,0,85,4,1,58,3,2
2017-08-21T23:59:56Z,63,92,87,60,92,63,86,58,2,2,0,0,0,0,0,0,3,89,2,61,0,92,0,63,0,0,0,0,0,0,0,0,11,78,3,9,54,8,90,2,0,62,5,5,92,0,0,63,3,0,92,0,0,63,4,5,92,0,0,63,3,0,92,0,0,63,3,0,92,0,0,63,3,0,42,46,3,28,33,7,91,1,0,62,4,0,90,1,0,61,4,0,2,82,7,1,57,10,3,85,3,2,59,7,39,49,3,26,36,7,89,1,0,60,4,0,87,4,1,60,3,2
2017-08-22T23:59:56Z,51,72,67,48,72,51,66,46,2,2,0,0,0,0,0,0,4,68,2,49,0,72,0,51,0,0,0,0,0,0,0,0,11,53,8,9,39,11,70,1,1,49,5,6,72,0,0,51,3,0,72,0,0,51,4,6,72,0,0,51,3,0,72,0,0,51,3,0,72,0,0,51,3,0,19,42,10,14,32,12,71,1,0,50,4,0,70,1,0,49,4,0,2,60,9,2,44,10,0,60,11,0,43,12,13,47,11,11,34,11,69,1,0,48,4,0,67,4,1,48,3,2
2017-08-23T23:59:57Z,63,91,86,60,91,63,85,58,1,1,0,0,0,0,0,0,3,88,2,61,0,91,0,63,0,0,0,0,0,0,0,0,12,76,3,10,53,8,90,0,1,62,4,6,91,0,0,63,3,0,91,0,0,63,4,5,91,0,0,63,3,0,91,0,0,63,3,0,91,0,0,63,3,0,35,52,4,23,39,8,90,1,0,62,4,0,90,1,0,62,4,0,0,86,5,0,60,9,1,87,3,1,60,7,32,54,5,21,39,9,89,1,0,61,4,0,86,4,1,60,3,2
2017-08-24T23:59:56Z,62,90,85,59,90,62,84,57,2,2,0,0,0,0,0,0,3,87,2,60,0,90,0,62,0,0,0,0,0,0,0,0,11,75,4,9,52,9,87,1,2,60,5,6,90,0,0,62,3,0,90,0,0,62,4,5,90,0,0,62,3,0,90,0,0,62,3,0,90,0,0,62,3,0,36,49,5,25,36,9,89,1,0,61,4,0,89,1,0,61,4,0,0,84,6,0,58,9,2,85,3,1,59,7,37,50,3,25,36,7,88,1,0,60,4,0,85,4,1,59,3,2
2017-08-25T23:59:57Z,63,91,86,60,91,63,85,58,1,1,0,0,0,0,0,0,3,88,2,61,0,91,0,63,0,0,0,0,0,0,0,0,11,75,5,9,53,10,90,0,1,62,4,6,91,0,0,63,3,0,91,0,0,63,4,5,91,0,0,63,3,0,91,0,0,63,3,0,91,0,0,63,3,0,41,46,4,28,35,8,90,1,0,62,4,0,90,1,0,62,4,0,0,88,3,0,61,7,0,87,4,0,60,8,37,50,4,26,37,8,89,1,0,61,4,0,85,5,1,59,4,2
2017-08-26T23:59:59Z,67,95,90,64,95,67,88,61,1,2,0,0,0,0,0,0,3,92,2,65,0,95,0,67,0,0,0,0,0,0,0,0,12,80,3,11,58,8,91,3,1,64,7,6,95,0,0,67,4,0,95,0,0,67,5,5,95,0,0,67,4,0,95,0,0,67,4,0,95,0,0,67,4,0,44,46,5,30,36,9,94,1,0,66,5,0,94,1,0,66,5,0,0,89,6,0,63,9,2,90,3,2,64,7,42,49,4,30,35,8,93,1,0,65,5,0,88,6,1,62,5,2
2017-08-27T23:59:58Z,62,89,84,59,88,62,82,57,1,2,0,0,0,0,0,0,3,86,2,60,0,88,0,62,0,0,0,0,0,0,0,0,12,73,4,10,52,9,89,0,0,62,5,5,89,0,0,62,4,0,89,0,0,62,5,5,89,0,0,62,4,0,89,0,0,62,4,0,89,0,0,62,4,0,39,47,3,26,36,7,88,1,0,61,5,0,88,1,0,61,5,0,0,86,3,0,60,7,0,85,4,0,59,8,40,46,3,28,35,7,87,1,0,60,5,0,83,5,1,58,4,2
2017-08-28T23:59:58Z,65,92,87,62,92,65,85,59,1,4,0,0,0,0,0,0,4,88,3,62,0,92,0,65,0,0,0,0,0,0,0,0,13,76,3,11,55,8,90,1,1,63,6,6,92,0,0,65,4,0,92,0,0,65,5,6,92,0,0,65,4,0,92,0,0,65,4,0,92,0,0,65,4,0,42,46,4,29,36,9,91,1,0,64,5,0,91,1,0,64,5,0,0,89,3,0,63,7,2,87,3,2,61,7,38,50,4,26,38,8,90,1,0,63,5,0,85,6,1,60,5,2